• MPC Preparation (Info)

  • MPEC 2013-T42 : 2013 TQ5

    The following Minor Planet Electronic Circular may be linked-to from your own Web pages, but must not otherwise be redistributed electronically.

    A form allowing access to any MPEC is at the bottom of this page.


    Read MPEC 2013-T41 Read MPEC 2013-T43


    M.P.E.C. 2013-T42                                Issued 2013 Oct. 6, 21:44 UT
    
         The Minor Planet Electronic Circulars contain information on unusual
             minor planets and routine data on comets.  They are published
       on behalf of Commission 20 of the International Astronomical Union by the
              Minor Planet Center, Smithsonian Astrophysical Observatory,
                              Cambridge, MA 02138, U.S.A.
    
                 Prepared using the Tamkin Foundation Computer Network
    
                                  MPC@CFA.HARVARD.EDU
                URL https://www.minorplanetcenter.net/    ISSN 1523-6714
    
                                       2013 TQ5
    
    Observations:
         K13T05Q* C2013 10 02.10346 16 37 39.89 +13 10 17.3          20.6 VqET042G96
         K13T05Q  C2013 10 02.11269 16 37 41.62 +13 10 25.6          20.8 VqET042G96
         K13T05Q  C2013 10 02.12166 16 37 43.31 +13 10 33.6          20.6 VqET042G96
         K13T05Q  C2013 10 02.13067 16 37 44.92 +13 10 41.1          20.3 VqET042G96
         K13T05Q  C2013 10 03.10604 16 40 50.13 +13 25 35.4          20.4 VqET042G96
         K13T05Q  C2013 10 03.12060 16 40 52.80 +13 25 48.1          20.7 VqET042G96
         K13T05Q  C2013 10 03.12784 16 40 54.14 +13 25 54.5          20.4 VqET042G96
         K13T05Q KC2013 10 03.81897 16 43 03.80 +13 36 09.9                qET042J95
         K13T05Q KC2013 10 03.85325 16 43 10.10 +13 36 40.9          20.7 RqET042J95
         K13T05Q  C2013 10 04.10995 16 43 57.63 +13 40 36.3          20.4 VqET042G96
         K13T05Q  C2013 10 04.11802 16 43 59.07 +13 40 43.4          20.4 VqET042G96
         K13T05Q  C2013 10 04.12608 16 44 00.54 +13 40 50.2          21.0 VqET042G96
         K13T05Q  C2013 10 04.13407 16 44 01.96 +13 40 57.5          20.9 VqET042G96
         K13T05Q KC2013 10 05.81519 16 49 09.52 +14 05 17.3                qET042J95
         K13T05Q KC2013 10 05.83377 16 49 12.83 +14 05 32.2                qET042J95
         K13T05Q KC2013 10 05.85353 16 49 16.28 +14 05 48.9          20.7 RqET042J95
         K13T05Q  C2013 10 06.08700 16 49 58.37 +14 09 16.4          21.0 RoET042926
         K13T05Q  C2013 10 06.08953 16 49 58.83 +14 09 18.5          20.9 VqET042G96
         K13T05Q  C2013 10 06.09561 16 49 59.84 +14 09 23.0                qET042G96
         K13T05Q  C2013 10 06.10505 16 50 01.47 +14 09 31.9          20.7 RoET042926
         K13T05Q  C2013 10 06.10769 16 50 01.94 +14 09 33.2                qET042G96
    
    Observer details:
    926 Tenagra II Observatory.  Observers M. Schwartz, P. R. Holvorcem.  0.81-m
        f/7 Ritchey-Chretien + CCD.
    G96 Mt. Lemmon Survey.  Observers J. A. Johnson, R. E. Hill.  Measurers
        A. Boattini, E. J. Christensen, A. R. Gibbs, A. D. Grauer, R. E. Hill,
        J. A. Johnson, R. A. Kowalski, S. M. Larson, F. C. Shelly.  1.5-m
        reflector + CCD.
    J95 Great Shefford.  Observer P. Birtwhistle.  0.40-m f/6.0 Schmidt-Cassegrain
        + CCD.
    
    Orbital elements:
    2013 TQ5                                                 Earth MOID = 0.1896 AU
    Epoch 2013 Sept. 25.0 TT = JDT 2456560.5                MPC
    M 166.28070              (2000.0)            P               Q
    n   1.43717923     Peri.  247.75320     -0.96240080     -0.07965123
    a   0.7776701      Node   286.89627     +0.19474205     -0.86882157
    e   0.1508775      Incl.   15.74812     -0.18936798     -0.48867653
    P   0.69           H   19.7           G   0.15
    From 21 observations 2013 Oct. 2-6.  E-assumed.
    
    Ephemeris:
    2013 TQ5                 a,e,i = 0.78, 0.15, 16                  Q = 0.8950
    Date    TT    R. A. (2000) Decl.     Delta      r     Elong.  Phase     V
    2013 09 06    14 55 52.5 +05 09 28   0.3950  0.8727    59.0    98.2    20.9
    ...
    2013 09 21    15 59 03.0 +10 01 50   0.3880  0.8899    61.9    95.4    20.8
    ...
    2013 09 29    16 27 32.4 +12 21 09   0.3863  0.8941    62.8    94.6    20.8
    ...
    2013 10 05    16 46 42.3 +13 53 47   0.3844  0.8950    63.2    94.3    20.7
    2013 10 06    16 49 43.5 +14 08 10   0.3840  0.8949    63.2    94.3    20.7
    2013 10 07    16 52 41.8 +14 22 13   0.3835  0.8948    63.2    94.3    20.7
    ...
    2013 10 13    17 09 31.3 +15 39 45   0.3798  0.8930    63.1    94.6    20.7
    ...
    2013 10 21    17 29 18.0 +17 03 15   0.3718  0.8875    62.5    95.7    20.7
    ...
    2013 11 05    17 58 12.4 +18 20 40   0.3456  0.8680    59.4   100.6    20.7
    
    A. U. Tomatic                (C) Copyright 2013 MPC           M.P.E.C. 2013-T42
    

    Read MPEC 2013-T41 Read MPEC 2013-T43


    MPEC number:

    Enter an MPEC number in one of the following forms:

    • 1997-B01 (the full form)
    • J97B01 (the packed version of the full form)
    • B01 (the abbreviated form)